Location: *
(60.1759°S, 155.0663°W)
Time: 13:34:43
(UTC+00:00)

SL-08 R/B - Pass Details

Date: 17 September 2019
Orbit: 673 x 740 km, 98.4° (Epoch: 16 October)

Event Time Altitude Azimuth Distance (km) Brightness Sun altitude
Rises 14:36:20 0° 163° (SSE) 3,184 7.3 -13.9°
Reaches altitude 10° 14:38:37 10° 166° (SSE) 2,266 6.4 -13.7°
Maximum altitude 14:43:34 64° 246° (WSW) 831 3.5 -13.1°
Enters shadow 14:48:26 10° 326° (NW) 2,242 5.5 -12.5°
